Regional Weather Roundup
Issued by NWS

Home | Current Version | Previous Version | Graphics & Text | Print | Product List | Glossary On
Versions: 1 2 3 4 5 6 7 8 9 10 11 12 13 14 15 16 17 18 19 20 21 22 23 24 25 26 27 28 29 30 31 32 33 34 35 36 37 38 39 40 41 42 43 44 45 46 47 48 49 50
000
ASUS43 KBIS 291710
RWRND

NORTH DAKOTA REGIONAL WEATHER ROUNDUP
NATIONAL WEATHER SERVICE BISMARCK ND
1200 PM CDT MON AUG 29 2016

NOTE: "FAIR" INDICATES FEW OR NO CLOUDS BELOW 12,000 FEET WITH NO
SIGNIFICANT WEATHER AND/OR OBSTRUCTIONS TO VISIBILITY.


NDZ001>003-009>011-017-291800-
NORTHWEST NORTH DAKOTA

CITY           SKY/WX    TMP DP  RH WIND       PRES   REMARKS
WILLISTON      SUNNY     66  43  43 N9        30.32S
MINOT          SUNNY     68  47  46 N7        30.28R
MINOT AFB      SUNNY     65  47  51 N8        30.27S
$$

NDZ018>021-031>035-040>046-291800-
SOUTHWEST NORTH DAKOTA

CITY           SKY/WX    TMP DP  RH WIND       PRES   REMARKS
BISMARCK       CLOUDY    71  51  49 N9        30.28R
DICKINSON      SUNNY     69  46  43 NE9       30.29F
GARRISON         N/A     68  48  48 VRB7      30.28R
HETTINGER ARPT SUNNY     71  50  47 E14       30.31R
$$

NDZ004>008-012>016-024-026-027-054-291800-
NORTHEAST NORTH DAKOTA

CITY           SKY/WX    TMP DP  RH WIND       PRES   REMARKS
GRAND FORKS    MOSUNNY   75  63  66 NW8       30.17R
GRND FRKS AFB  SUNNY     74  62  66 N9        30.19R
DEVILS LAKE    SUNNY     68  51  54 N8        30.25R
$$

NDZ022-023-025-028>030-036>039-047>053-291800-
SOUTHEAST NORTH DAKOTA

CITY           SKY/WX    TMP DP  RH WIND       PRES   REMARKS
FARGO          CLOUDY    78  70  76 SW9       30.15R
JAMESTOWN      SUNNY     72  61  68 N8        30.22R
$$





USA.gov is the U.S. government's official web portal to all federal, state and local government web resources and services.